Location: Brede
(50.9167°N, 0.6000°E)
Time: 11:23:04
(UTC+00:00)

A-11 Canister half - Pass Details

Date: 26 November 2020
Orbit: 1524 x 1684 km, 47.3° (Epoch: 20 January)

Event Time Altitude Azimuth Distance (km) Brightness Sun altitude
Rises 03:51:39 0° 165° (SSE) 4,926 11.7 -33.9°
Reaches altitude 10° 03:59:17 10° 128° (SE) 3,934 11.6 -32.7°
Maximum altitude 04:00:33 10° 121° (ESE) 3,908 11.7 -32.5°
Drops below altitude 10° 04:01:49 10° 113° (ESE) 3,929 11.8 -32.3°
Sets 04:09:20 0° 77° (ENE) 4,890 12.8 -31.1°
